Location: Boitzum
(52.1496°N, 9.6943°E)
Time: 15:03:32
(UTC+00:00)

Cosmos 2184 Rocket - Visible Passes

Search period start: 11 April 2026 00:00
Search period end: 21 April 2026 00:00
Orbit: 959 x 1001 km, 82.9° (Epoch: 11 April)

Date Brightness Start Highest point End Pass type
(mag) Time Alt. Az. Time Alt. Az. Time Alt. Az.
11 Apr 7.4 03:27:37 10° NNE 03:29:02 11° NE 03:30:26 10° ENE visible
11 Apr 4.1 18:46:40 10° S 18:52:58 67° E 18:59:17 10° NNE visible
11 Apr 6.0 20:33:36 10° WSW 20:39:00 28° WNW 20:44:24 10° N visible
12 Apr 6.9 03:52:31 10° NNE 03:56:30 17° NE 04:00:27 10° E visible
12 Apr 4.3 19:13:13 10° SSW 19:19:36 77° WNW 19:26:00 10° N visible
12 Apr 6.7 21:01:59 10° W 21:06:14 18° NW 21:10:29 10° NNW visible
13 Apr 5.2 19:40:18 10° SW 19:46:25 48° WNW 19:52:33 10° N visible
13 Apr 7.1 21:31:41 10° WNW 21:33:42 11° NW 21:35:42 10° NNW visible
14 Apr 6.0 20:07:55 10° SW 20:13:26 30° WNW 20:18:57 10° N visible
15 Apr 7.1 03:27:10 10° NNE 03:30:53 16° NE 03:34:35 10° E visible
15 Apr 4.2 18:47:43 10° SSW 18:54:05 82° W 19:00:29 10° N visible
15 Apr 6.7 20:36:12 10° WSW 20:40:38 19° WNW 20:45:04 10° NNW visible
16 Apr 5.1 19:14:43 10° SSW 19:20:53 51° WNW 19:27:04 10° N visible
16 Apr 7.1 21:05:35 10° WNW 21:08:04 12° NW 21:10:31 10° NNW visible
17 Apr 6.0 19:42:15 10° SW 19:47:52 32° WNW 19:53:29 10° N visible
18 Apr 7.2 03:01:50 10° NNE 03:05:16 15° NE 03:08:40 10° E visible
18 Apr 6.8 20:10:26 10° WSW 20:15:03 21° WNW 20:19:40 10° N visible
19 Apr 6.8 03:27:41 10° N 03:32:35 23° ENE 03:37:25 10° ESE visible
19 Apr 7.2 20:39:35 10° WNW 20:42:26 13° NW 20:45:16 10° NNW visible
20 Apr 6.0 19:16:36 10° SW 19:22:18 34° WNW 19:28:00 10° N visible
